Location: Audinghen
(50.8518°N, 1.6129°E)
Time: 20:38:31
(UTC+00:00)

Cosmos 1626 Rocket - Pass Details

Date: 07 August 2020
Orbit: 603 x 631 km, 82.5° (Epoch: 21 September)

Event Time Altitude Azimuth Distance (km) Brightness Sun altitude
Rises 03:06:50 0° 348° (NNW) 2,881 7.5 -11.3°
Reaches altitude 10° 03:09:04 10° 346° (NNW) 1,969 6.6 -11.1°
Maximum altitude 03:13:25 74° 263° (W) 634 3.5 -10.6°
Drops below altitude 10° 03:17:42 10° 178° (S) 1,946 5.7 -10.1°
Sets 03:19:54 0° 177° (S) 2,844 6.6 -9.8°
Enters shadow 03:19:54 - 177° (S) 2,847 6.6 -9.8°
